IK7IZV Weather Reports


Display with metric or nautical units.
time (UTC)temp
F
wind
direction
speed
MPH
gust
MPH
rain 1hr
in
rain 24hr
in
rain mn
in
humidity
%
barometer
mb
20260503054514 62 70 3.0 11.0 0.00 0.00 0.00 47 1020.5
20260503053007 61 341 6.0 10.0 0.00 0.00 0.00 48 1020.3
20260503051503 59 324 3.0 6.0 0.00 0.00 0.00 50 1020.3
20260503050100 58 323 1.0 6.0 0.00 0.00 0.00 52 1020.3
20260503044608 57 312 2.0 4.0 0.00 0.00 0.00 53 1020.2
20260503043102 57 326 2.0 4.0 0.00 0.00 0.00 53 1020.2
20260503041557 57 327 2.0 6.0 0.00 0.00 0.00 53 1020.3
20260503040100 57 287 3.0 9.0 0.00 0.00 0.00 52 1020.3
20260503034556 57 302 2.0 6.0 0.00 0.00 0.00 52 1020.2
20260503033123 57 288 1.0 4.0 0.00 0.00 0.00 52 1020.3
20260503031559 57 274 2.0 9.0 0.00 0.00 0.00 51 1020.3
20260503024613 57 2 6.0 9.0 0.00 0.00 0.00 51 1020.4
20260503023049 57 336 5.0 8.0 0.00 0.00 0.00 52 1020.4
20260503021553 57 345 4.0 8.0 0.00 0.00 0.00 52 1020.4
20260503020049 57 2 3.0 8.0 0.00 0.00 0.00 53 1020.4
20260503014546 56 298 4.0 7.0 0.00 0.00 0.00 54 1020.4
20260503013045 56 313 3.0 8.0 0.00 0.00 0.00 54 1020.6
20260503011546 56 317 4.0 7.0 0.00 0.00 0.00 54 1020.7
20260503010042 56 291 4.0 8.0 0.00 0.00 0.00 54 1020.8
20260503004544 56 303 2.0 6.0 0.00 0.00 0.00 55 1020.9
20260503003040 56 295 3.0 9.0 0.00 0.00 0.00 55 1021.0
20260503001540 56 327 3.0 7.0 0.00 0.00 0.00 55 1021.2
20260503000036 56 292 4.0 7.0 0.00 0.00 0.00 54 1021.3
20260502234534 57 309 2.0 6.0 0.00 0.00 0.00 53 1021.5
20260502233041 57 276 3.0 7.0 0.00 0.00 0.00 53 1021.8
20260502231545 57 277 4.0 8.0 0.00 0.00 0.00 53 1021.9
20260502230028 57 283 4.0 8.0 0.00 0.00 0.00 55 1022.1
20260502224525 56 286 5.0 9.0 0.00 0.00 0.00 57 1022.2
20260502223025 56 307 4.0 9.0 0.00 0.00 0.00 59 1022.4
20260502221522 56 288 5.0 9.0 0.00 0.00 0.00 61 1022.4
20260502220024 56 263 2.0 7.0 0.00 0.00 0.00 62 1022.5
20260502214517 55 317 2.0 9.0 0.00 0.00 0.00 63 1022.6
20260502213017 55 294 2.0 7.0 0.00 0.00 0.00 64 1022.7
20260502211526 55 260 2.0 6.0 0.00 0.00 0.00 64 1022.7
20260502210015 55 304 1.0 8.0 0.00 0.00 0.00 66 1022.8
20260502204514 55 219 1.0 5.0 0.00 0.00 0.00 67 1022.9
20260502203013 56 314 1.0 6.0 0.00 0.00 0.00 67 1023.0
20260502201514 57 293 2.0 6.0 0.00 0.00 0.00 65 1023.0
20260502200013 58 262 1.0 5.0 0.00 0.00 0.00 64 1023.0
20260502194512 60 256 0.0 3.0 0.00 0.00 0.00 61 1023.0
20260502193015 60 304 1.0 4.0 0.00 0.00 0.00 60 1022.9
20260502191513 60 307 2.0 7.0 0.00 0.00 0.00 60 1022.9
20260502190011 61 303 1.0 4.0 0.00 0.00 0.00 60 1022.8
20260502184512 61 49 2.0 6.0 0.00 0.00 0.00 61 1022.7
20260502183009 61 343 2.0 6.0 0.00 0.00 0.00 61 1022.7
20260502181508 62 299 1.0 3.0 0.00 0.00 0.00 60 1022.6
20260502163005 63 359 6.0 16.0 0.00 0.00 0.00 53 1022.4
20260502161505 63 63 8.0 15.0 0.00 0.00 0.00 50 1022.4
20260502151612 63 27 8.0 14.0 0.00 0.00 0.00 49 1022.9
20260502150109 63 21 11.0 17.0 0.00 0.00 0.00 50 1023.0
20260502123051 62 63 12.0 17.0 0.00 0.00 0.00 49 1023.9
20260502121552 62 30 13.0 19.0 0.00 0.00 0.00 50 1023.9
20260502120104 62 66 13.0 19.0 0.00 0.00 0.00 50 1024.0
20260502114556 62 76 12.0 21.0 0.00 0.00 0.00 51 1024.0
20260502113048 62 99 8.0 22.0 0.00 0.00 0.00 50 1024.0
20260502111552 62 9 11.0 22.0 0.00 0.00 0.00 49 1024.1
20260502110048 62 78 15.0 22.0 0.00 0.00 0.00 50 1024.1
20260502104551 62 31 11.0 22.0 0.00 0.00 0.00 50 1024.1
20260502103047 62 54 13.0 20.0 0.00 0.00 0.00 47 1024.4
20260502101548 62 35 11.0 18.0 0.00 0.00 0.00 51 1024.4
20260502070033 61 71 14.0 25.0 0.00 0.00 0.00 50 1024.1
20260502064534 60 76 5.0 12.0 0.00 0.00 0.00 65 1024.2
20260502063030 59 52 7.0 11.0 0.00 0.00 0.00 68 1024.2